Time,TemperatureF,DewpointF,PressureIn,WindDirection,WindDirectionDegrees,WindSpeedMPH,WindSpeedGustMPH,Humidity,HourlyPrecipIn,Conditions,Clouds,dailyrainin,SoftwareType,DateUTC
2013-07-21 00:01:00,64.0,62.0,-100.00,SW,221,2.0,3.0,92,-99.99,,,-99.99,,2013-07-21 07:01:00,
2013-07-21 00:11:00,64.0,62.0,-100.00,SW,221,2.0,3.0,92,-99.99,,,-99.99,,2013-07-21 07:11:00,
2013-07-21 00:22:00,64.0,62.0,-100.00,SW,224,1.0,2.0,92,-99.99,,,-99.99,,2013-07-21 07:22:00,
2013-07-21 00:32:00,64.0,62.0,-100.00,West,264,1.0,2.0,92,-99.99,,,-99.99,,2013-07-21 07:32:00,
2013-07-21 00:43:00,64.0,62.0,-100.00,West,261,1.0,2.0,92,-99.99,,,-99.99,,2013-07-21 07:43:00,
2013-07-21 00:52:00,64.0,62.0,-100.00,SE,138,0.0,1.0,92,-99.99,,,-99.99,,2013-07-21 07:52:00,
2013-07-21 01:11:00,64.0,61.0,-100.00,South,185,2.0,2.0,91,-99.99,,,-99.99,,2013-07-21 08:11:00,
2013-07-21 01:22:00,64.0,61.0,-100.00,South,185,2.0,2.0,91,-99.99,,,-99.99,,2013-07-21 08:22:00,
2013-07-21 01:43:00,64.0,61.0,-100.00,SE,138,1.0,2.0,91,-99.99,,,-99.99,,2013-07-21 08:43:00,
2013-07-21 01:52:00,64.0,61.0,-100.00,East,90,1.0,3.0,91,-99.99,,,-99.99,,2013-07-21 08:52:00,
2013-07-21 02:02:00,64.0,61.0,-100.00,West,276,1.0,4.0,91,-99.99,,,-99.99,,2013-07-21 09:02:00,
2013-07-21 02:11:00,64.0,61.0,-100.00,ENE,62,2.0,3.0,90,-99.99,,,-99.99,,2013-07-21 09:11:00,
2013-07-21 02:22:00,64.0,61.0,-100.00,ENE,62,2.0,3.0,90,-99.99,,,-99.99,,2013-07-21 09:22:00,
2013-07-21 02:32:00,64.0,61.0,-100.00,NE,44,2.0,3.0,90,-99.99,,,-99.99,,2013-07-21 09:32:00,
2013-07-21 02:52:00,64.0,61.0,-100.00,NE,48,2.0,4.0,90,-99.99,,,-99.99,,2013-07-21 09:52:00,
2013-07-21 03:01:00,64.0,61.0,-100.00,NE,48,2.0,4.0,90,-99.99,,,-99.99,,2013-07-21 10:01:00,
2013-07-21 03:22:00,64.0,61.0,-100.00,NE,44,2.0,3.0,90,-99.99,,,-99.99,,2013-07-21 10:22:00,
2013-07-21 03:32:00,64.0,61.0,-100.00,ENE,65,2.0,3.0,90,-99.99,,,-99.99,,2013-07-21 10:32:00,
2013-07-21 03:43:00,64.0,61.0,-100.00,SE,129,1.0,2.0,91,-99.99,,,-99.99,,2013-07-21 10:43:00,
2013-07-21 03:52:00,64.0,61.0,-100.00,NNW,336,2.0,5.0,91,-99.99,,,-99.99,,2013-07-21 10:52:00,
2013-07-21 04:11:00,64.0,61.0,-100.00,SSW,213,1.0,3.0,91,-99.99,,,-99.99,,2013-07-21 11:11:00,
2013-07-21 04:22:00,64.0,61.0,-100.00,SSW,213,1.0,3.0,91,-99.99,,,-99.99,,2013-07-21 11:22:00,
2013-07-21 04:32:00,64.0,61.0,-100.00,East,84,1.0,3.0,91,-99.99,,,-99.99,,2013-07-21 11:32:00,
2013-07-21 04:52:00,64.0,61.0,-100.00,North,9,5.0,7.0,91,-99.99,,,-99.99,,2013-07-21 11:52:00,
2013-07-21 05:22:00,64.0,61.0,-100.00,ESE,103,1.0,2.0,91,-99.99,,,-99.99,,2013-07-21 12:22:00,
2013-07-21 05:32:00,64.0,61.0,-100.00,ENE,60,1.0,2.0,91,-99.99,,,-99.99,,2013-07-21 12:32:00,
2013-07-21 05:53:00,64.0,61.0,-100.00,East,90,1.0,2.0,91,-99.99,,,-99.99,,2013-07-21 12:53:00,
2013-07-21 06:11:00,64.0,61.0,-100.00,SSE,157,4.0,7.0,91,-99.99,,,-99.99,,2013-07-21 13:11:00,
2013-07-21 06:22:00,64.0,61.0,-100.00,SW,214,4.0,6.0,91,-99.99,,,-99.99,,2013-07-21 13:22:00,
2013-07-21 06:32:00,64.0,61.0,-100.00,SW,214,2.0,3.0,91,-99.99,,,-99.99,,2013-07-21 13:32:00,
2013-07-21 06:42:00,64.0,62.0,-100.00,NNW,345,3.0,5.0,92,-99.99,,,-99.99,,2013-07-21 13:42:00,
2013-07-21 06:52:00,64.0,62.0,-100.00,NNW,345,3.0,5.0,92,-99.99,,,-99.99,,2013-07-21 13:52:00,
2013-07-21 07:01:00,64.0,62.0,-100.00,North,3,4.0,6.0,92,-99.99,,,-99.99,,2013-07-21 14:01:00,
2013-07-21 07:22:00,64.0,62.0,-100.00,NE,44,2.0,3.0,93,-99.99,,,-99.99,,2013-07-21 14:22:00,
2013-07-21 07:32:00,64.0,62.0,-100.00,NNE,24,2.0,5.0,93,-99.99,,,-99.99,,2013-07-21 14:32:00,
2013-07-21 07:43:00,64.0,62.0,-100.00,ENE,59,3.0,5.0,93,-99.99,,,-99.99,,2013-07-21 14:43:00,
2013-07-21 07:53:00,64.0,62.0,-100.00,ENE,59,3.0,5.0,93,-99.99,,,-99.99,,2013-07-21 14:53:00,
2013-07-21 08:11:00,64.0,62.0,-100.00,East,95,1.0,1.0,93,-99.99,,,-99.99,,2013-07-21 15:11:00,
2013-07-21 08:32:00,64.0,62.0,-100.00,ESE,114,1.0,3.0,93,-99.99,,,-99.99,,2013-07-21 15:32:00,
2013-07-21 08:42:00,64.0,62.0,-100.00,SSE,160,1.0,2.0,92,-99.99,,,-99.99,,2013-07-21 15:42:00,
2013-07-21 08:53:00,65.0,63.0,-100.00,East,81,1.0,4.0,92,-99.99,,,-99.99,,2013-07-21 15:53:00,
2013-07-21 09:11:00,65.0,62.0,-100.00,ESE,117,1.0,3.0,91,-99.99,,,-99.99,,2013-07-21 16:11:00,
2013-07-21 09:22:00,65.0,62.0,-100.00,ESE,119,3.0,5.0,90,-99.99,,,-99.99,,2013-07-21 16:22:00,
2013-07-21 09:32:00,66.0,63.0,-100.00,SSW,202,2.0,4.0,89,-99.99,,,-99.99,,2013-07-21 16:32:00,
2013-07-21 09:42:00,66.0,62.0,-100.00,SSW,199,2.0,7.0,88,-99.99,,,-99.99,,2013-07-21 16:42:00,
2013-07-21 09:52:00,67.0,63.0,-100.00,SSW,205,3.0,7.0,86,-99.99,,,-99.99,,2013-07-21 16:52:00,
2013-07-21 10:11:00,68.0,63.0,-100.00,South,173,3.0,7.0,84,-99.99,,,-99.99,,2013-07-21 17:11:00,
2013-07-21 10:22:00,69.0,63.0,-100.00,SSW,207,3.0,6.0,81,-99.99,,,-99.99,,2013-07-21 17:22:00,
2013-07-21 10:33:00,69.0,63.0,-100.00,South,181,3.0,8.0,80,-99.99,,,-99.99,,2013-07-21 17:33:00,
2013-07-21 10:42:00,69.0,63.0,-100.00,South,181,3.0,8.0,80,-99.99,,,-99.99,,2013-07-21 17:42:00,
2013-07-21 10:53:00,69.0,63.0,-100.00,South,181,3.0,8.0,80,-99.99,,,-99.99,,2013-07-21 17:53:00,
2013-07-21 11:11:00,70.0,63.0,-100.00,SW,214,5.0,10.0,78,-99.99,,,-99.99,,2013-07-21 18:11:00,
2013-07-21 11:21:00,70.0,63.0,-100.00,SW,236,5.0,10.0,78,-99.99,,,-99.99,,2013-07-21 18:21:00,
2013-07-21 11:32:00,71.0,62.0,-100.00,SSW,209,6.0,10.0,74,-99.99,,,-99.99,,2013-07-21 18:32:00,
2013-07-21 11:43:00,71.0,63.0,-100.00,SSW,213,6.0,9.0,76,-99.99,,,-99.99,,2013-07-21 18:43:00,
2013-07-21 11:52:00,71.0,63.0,-100.00,SSW,213,6.0,9.0,76,-99.99,,,-99.99,,2013-07-21 18:52:00,
2013-07-21 12:01:00,70.0,63.0,-100.00,SSW,203,6.0,10.0,78,-99.99,,,-99.99,,2013-07-21 19:01:00,
2013-07-21 12:11:00,70.0,63.0,-100.00,SSW,203,6.0,10.0,78,-99.99,,,-99.99,,2013-07-21 19:11:00,
2013-07-21 12:22:00,70.0,63.0,-100.00,South,190,7.0,11.0,79,-99.99,,,-99.99,,2013-07-21 19:22:00,
2013-07-21 12:32:00,69.0,63.0,-100.00,South,185,7.0,11.0,80,-99.99,,,-99.99,,2013-07-21 19:32:00,
2013-07-21 12:42:00,70.0,63.0,-100.00,South,187,7.0,11.0,78,-99.99,,,-99.99,,2013-07-21 19:42:00,
2013-07-21 12:52:00,70.0,63.0,-100.00,South,187,7.0,11.0,78,-99.99,,,-99.99,,2013-07-21 19:52:00,
2013-07-21 13:11:00,70.0,63.0,-100.00,South,186,7.0,12.0,78,-99.99,,,-99.99,,2013-07-21 20:11:00,
2013-07-21 13:22:00,70.0,63.0,-100.00,South,185,7.0,10.0,78,-99.99,,,-99.99,,2013-07-21 20:22:00,
2013-07-21 13:32:00,70.0,63.0,-100.00,South,185,7.0,10.0,78,-99.99,,,-99.99,,2013-07-21 20:32:00,
2013-07-21 13:42:00,70.0,63.0,-100.00,SSW,192,6.0,10.0,78,-99.99,,,-99.99,,2013-07-21 20:42:00,
2013-07-21 13:52:00,70.0,63.0,-100.00,South,189,6.0,10.0,79,-99.99,,,-99.99,,2013-07-21 20:52:00,
2013-07-21 14:11:00,70.0,63.0,-100.00,WSW,241,6.0,10.0,79,-99.99,,,-99.99,,2013-07-21 21:11:00,
2013-07-21 14:22:00,70.0,63.0,-100.00,WSW,241,6.0,10.0,79,-99.99,,,-99.99,,2013-07-21 21:22:00,
2013-07-21 14:32:00,70.0,63.0,-100.00,WSW,241,6.0,9.0,79,-99.99,,,-99.99,,2013-07-21 21:32:00,
2013-07-21 14:52:00,70.0,62.0,-100.00,SSW,199,6.0,9.0,77,-99.99,,,-99.99,,2013-07-21 21:52:00,
2013-07-21 15:11:00,71.0,63.0,-100.00,SSW,196,6.0,11.0,76,-99.99,,,-99.99,,2013-07-21 22:11:00,
2013-07-21 15:22:00,71.0,63.0,-100.00,SSW,196,6.0,11.0,76,-99.99,,,-99.99,,2013-07-21 22:22:00,
2013-07-21 15:32:00,71.0,62.0,-100.00,SSW,209,5.0,10.0,73,-99.99,,,-99.99,,2013-07-21 22:32:00,
2013-07-21 15:42:00,71.0,62.0,-100.00,SW,229,6.0,10.0,74,-99.99,,,-99.99,,2013-07-21 22:42:00,
2013-07-21 15:52:00,71.0,63.0,-100.00,SW,231,6.0,10.0,76,-99.99,,,-99.99,,2013-07-21 22:52:00,
2013-07-21 16:11:00,71.0,62.0,-100.00,SW,220,5.0,9.0,74,-99.99,,,-99.99,,2013-07-21 23:11:00,
2013-07-21 16:22:00,70.0,62.0,-100.00,SSW,207,7.0,11.0,75,-99.99,,,-99.99,,2013-07-21 23:22:00,
2013-07-21 16:32:00,69.0,62.0,-100.00,South,189,7.0,11.0,79,-99.99,,,-99.99,,2013-07-21 23:32:00,
2013-07-21 16:42:00,68.0,62.0,-100.00,South,190,5.0,8.0,81,-99.99,,,-99.99,,2013-07-21 23:42:00,
2013-07-21 16:52:00,68.0,62.0,-100.00,South,180,5.0,8.0,81,-99.99,,,-99.99,,2013-07-21 23:52:00,
2013-07-21 17:01:00,68.0,62.0,-100.00,South,181,5.0,7.0,81,-99.99,,,-99.99,,2013-07-22 00:01:00,
2013-07-21 17:11:00,68.0,62.0,-100.00,South,181,5.0,7.0,81,-99.99,,,-99.99,,2013-07-22 00:11:00,
2013-07-21 17:22:00,67.0,61.0,-100.00,SSW,192,6.0,8.0,82,-99.99,,,-99.99,,2013-07-22 00:22:00,
2013-07-21 17:52:00,67.0,62.0,-100.00,South,184,5.0,7.0,84,-99.99,,,-99.99,,2013-07-22 00:52:00,
2013-07-21 18:11:00,66.0,61.0,-100.00,South,187,5.0,8.0,85,-99.99,,,-99.99,,2013-07-22 01:11:00,
2013-07-21 18:21:00,66.0,61.0,-100.00,SSW,201,4.0,7.0,85,-99.99,,,-99.99,,2013-07-22 01:21:00,
2013-07-21 18:42:00,66.0,62.0,-100.00,South,190,4.0,8.0,86,-99.99,,,-99.99,,2013-07-22 01:42:00,
2013-07-21 18:52:00,66.0,62.0,-100.00,South,190,4.0,8.0,86,-99.99,,,-99.99,,2013-07-22 01:52:00,
2013-07-21 19:01:00,66.0,61.0,-100.00,SSW,192,3.0,5.0,85,-99.99,,,-99.99,,2013-07-22 02:01:00,
2013-07-21 19:11:00,66.0,61.0,-100.00,SSW,192,3.0,5.0,85,-99.99,,,-99.99,,2013-07-22 02:11:00,
2013-07-21 19:32:00,66.0,61.0,-100.00,South,180,2.0,4.0,85,-99.99,,,-99.99,,2013-07-22 02:32:00,
2013-07-21 19:43:00,66.0,61.0,-100.00,South,172,2.0,3.0,85,-99.99,,,-99.99,,2013-07-22 02:43:00,
2013-07-21 19:52:00,66.0,61.0,-100.00,South,181,2.0,3.0,85,-99.99,,,-99.99,,2013-07-22 02:52:00,
2013-07-21 20:11:00,66.0,62.0,-100.00,SW,223,4.0,6.0,86,-99.99,,,-99.99,,2013-07-22 03:11:00,
2013-07-21 20:22:00,66.0,62.0,-100.00,SW,223,4.0,6.0,86,-99.99,,,-99.99,,2013-07-22 03:22:00,
2013-07-21 20:33:00,66.0,62.0,-100.00,South,190,2.0,3.0,86,-99.99,,,-99.99,,2013-07-22 03:33:00,
2013-07-21 20:52:00,66.0,62.0,-100.00,South,178,2.0,3.0,86,-99.99,,,-99.99,,2013-07-22 03:52:00,
2013-07-21 21:11:00,66.0,62.0,-100.00,SSW,196,2.0,3.0,86,-99.99,,,-99.99,,2013-07-22 04:11:00,
2013-07-21 21:22:00,66.0,62.0,-100.00,South,190,1.0,3.0,87,-99.99,,,-99.99,,2013-07-22 04:22:00,
2013-07-21 21:33:00,66.0,62.0,-100.00,SSW,196,2.0,2.0,87,-99.99,,,-99.99,,2013-07-22 04:33:00,
2013-07-21 21:43:00,66.0,62.0,-100.00,SW,218,2.0,2.0,87,-99.99,,,-99.99,,2013-07-22 04:43:00,
2013-07-21 22:01:00,66.0,62.0,-100.00,South,190,2.0,2.0,87,-99.99,,,-99.99,,2013-07-22 05:01:00,
2013-07-21 22:11:00,66.0,62.0,-100.00,South,190,2.0,2.0,87,-99.99,,,-99.99,,2013-07-22 05:11:00,
2013-07-21 22:42:00,66.0,62.0,-100.00,SW,218,2.0,3.0,87,-99.99,,,-99.99,,2013-07-22 05:42:00,
2013-07-21 22:52:00,66.0,62.0,-100.00,SSW,204,2.0,3.0,87,-99.99,,,-99.99,,2013-07-22 05:52:00,
2013-07-21 23:11:00,66.0,62.0,-100.00,SSW,192,3.0,4.0,87,-99.99,,,-99.99,,2013-07-22 06:11:00,
2013-07-21 23:21:00,65.0,61.0,-100.00,South,187,2.0,4.0,88,-99.99,,,-99.99,,2013-07-22 06:21:00,
2013-07-21 23:32:00,65.0,62.0,-100.00,South,173,2.0,5.0,89,-99.99,,,-99.99,,2013-07-22 06:32:00,
2013-07-21 23:52:00,65.0,62.0,-100.00,South,190,1.0,3.0,90,-99.99,,,-99.99,,2013-07-22 06:52:00,